Weather History for Jefferson, GA

Change the Weather History Date:

Sunday, February 3, 2013

  Actual Average (KGVL) Record (KGVL)
Temperature  
Mean Temperature 42 °F 43 °F  
Max Temperature 51 °F 52 °F 75 °F (1932)
Min Temperature 33 °F 34 °F 8 °F (1951)
Degree Days  
Heating Degree Days 23 22  
Month to date heating degree days 66  
Since 1 July heating degree days 1984  
Moisture  
Dew Point 23 °F    
Average Humidity 56    
Maximum Humidity 93    
Minimum Humidity 16    
Precipitation  
Precipitation 0.00 in 0.14 in 3.82 in (1982)
Month to date precipitation 0.49  
Year to date precipitation 5.52  
Snow  
Snow 0.00 in - - ()
Month to date snowfall  
Since 1 July snowfall  
Snow Depth -    
Sea Level Pressure  
Sea Level Pressure 30.03 in    
Wind  
Wind Speed 10 mph (WNW)    
Max Wind Speed 24 mph    
Max Gust Speed 33 mph    
Visibility 10 miles    
Events      
T = Trace of Precipitation, MM = Missing Value Source: NWS Daily Summary

Daily Weather History Graph

Daily Weather History Graph

Search for Another Location

Airport:

Trip Planner

Search our weather history database for the weather conditions in past years. The results will help you decide how hot, cold, wet, or windy it might be!

Date:

Astronomy

Feb. 03, 2013 Rise Set
Actual Time 7:29 AM EST 6:06 PM EST
Civil Twilight 7:03 AM EST 6:32 PM EST
Nautical Twilight 6:33 AM EST 7:02 PM EST
Astronomical Twilight 6:04 AM EST 7:32 PM EST
Moon 12:55 AM EST (2/3) 11:44 AM EST (2/3)
Length of Visible Light 11h 29m
Length of Day
10h 36m
Waning Gibbous, 49% of the Moon is Illuminated
Feb 3
Waning Gibbous
Feb 10
New
Feb 17
First Quarter
Feb 25
Full
Mar 4
Last Quarter

Hourly Weather History & Observations

Time (EST) Temp. Windchill Dew Point Humidity Pressure Visibility Wind Dir Wind Speed Gust Speed Precip Events Conditions
12:15 AM 37.4 °F 32.8 °F 35.6 °F 93% 30.09 in 10.0 mi West 5.8 mph - N/A   Clear
12:35 AM 37.4 °F 32.8 °F 35.6 °F 93% 30.09 in 10.0 mi West 5.8 mph - N/A   Clear
12:55 AM 37.4 °F 30.8 °F 35.6 °F 93% 30.07 in 10.0 mi WNW 9.2 mph - N/A   Clear
1:15 AM 37.4 °F 29.3 °F 35.6 °F 93% 30.09 in 10.0 mi WNW 12.7 mph 19.6 mph N/A   Scattered Clouds
1:35 AM 37.4 °F 30.3 °F 33.8 °F 87% 30.09 in 10.0 mi WNW 10.4 mph - N/A   Mostly Cloudy
1:55 AM 37.4 °F 32.1 °F 33.8 °F 87% 30.08 in 10.0 mi West 6.9 mph - N/A   Scattered Clouds
2:15 AM 37.4 °F 32.1 °F 33.8 °F 87% 30.07 in 10.0 mi West 6.9 mph - N/A   Clear
2:35 AM 37.4 °F 31.4 °F 33.8 °F 87% 30.08 in 10.0 mi West 8.1 mph - N/A   Clear
2:55 AM 35.6 °F 28.0 °F 33.8 °F 93% 30.07 in 10.0 mi West 10.4 mph - N/A   Clear
3:15 AM 35.6 °F 28.6 °F 33.8 °F 93% 30.07 in 10.0 mi West 9.2 mph - N/A   Clear
3:35 AM 35.6 °F 29.2 °F 32.0 °F 87% 30.06 in 10.0 mi West 8.1 mph - N/A   Clear
3:55 AM 35.6 °F 29.9 °F 33.8 °F 93% 30.06 in 10.0 mi West 6.9 mph - N/A   Clear
4:15 AM 35.6 °F 29.9 °F 33.8 °F 93% 30.06 in 10.0 mi West 6.9 mph - N/A   Clear
4:35 AM 33.8 °F 27.0 °F 32.0 °F 93% 30.06 in 10.0 mi West 8.1 mph - N/A   Clear
4:55 AM 33.8 °F 27.0 °F 32.0 °F 93% 30.06 in 10.0 mi West 8.1 mph - N/A   Clear
5:15 AM 33.8 °F 27.7 °F 32.0 °F 93% 30.06 in 10.0 mi West 6.9 mph - N/A   Clear
5:35 AM 33.8 °F 27.7 °F 32.0 °F 93% 30.06 in 10.0 mi West 6.9 mph - N/A   Clear
5:55 AM 33.8 °F 27.7 °F 32.0 °F 93% 30.06 in 10.0 mi West 6.9 mph - N/A   Clear
6:15 AM 33.8 °F 27.7 °F 32.0 °F 93% 30.07 in 10.0 mi West 6.9 mph - N/A   Clear
6:35 AM 33.8 °F 25.8 °F 32.0 °F 93% 30.07 in 10.0 mi West 10.4 mph - N/A   Clear
6:55 AM 33.8 °F 27.0 °F 32.0 °F 93% 30.06 in 7.0 mi West 8.1 mph - N/A   Clear
7:15 AM 33.8 °F 27.0 °F 32.0 °F 93% 30.06 in 7.0 mi West 8.1 mph - N/A   Clear
7:35 AM 33.8 °F 27.0 °F 32.0 °F 93% 30.06 in 10.0 mi West 8.1 mph - N/A   Clear
7:55 AM 33.8 °F 26.4 °F 32.0 °F 93% 30.06 in 7.0 mi West 9.2 mph - N/A   Clear
8:15 AM 33.8 °F 25.8 °F 32.0 °F 93% 30.06 in 7.0 mi West 10.4 mph - N/A   Clear
8:35 AM 33.8 °F 26.4 °F 32.0 °F 93% 30.06 in 7.0 mi West 9.2 mph - N/A   Clear
9:15 AM 35.6 °F 27.1 °F 32.0 °F 87% 30.05 in 10.0 mi West 12.7 mph 18.4 mph N/A   Scattered Clouds
9:35 AM 37.4 °F 30.3 °F 32.0 °F 81% 30.05 in 10.0 mi West 10.4 mph 17.3 mph N/A   Clear
9:55 AM 39.2 °F 32.5 °F 32.0 °F 75% 30.04 in 10.0 mi West 10.4 mph 16.1 mph N/A   Clear
10:15 AM 41.0 °F 34.3 °F 32.0 °F 70% 30.04 in 10.0 mi West 11.5 mph - N/A   Clear
10:35 AM 42.8 °F 37.0 °F 30.2 °F 61% 30.04 in 10.0 mi West 10.4 mph 16.1 mph N/A   Clear
10:55 AM 44.6 °F 37.4 °F 30.2 °F 57% 30.03 in 10.0 mi West 16.1 mph 23.0 mph N/A   Clear
11:15 AM 44.6 °F 38.4 °F 28.4 °F 53% 30.03 in 10.0 mi West 12.7 mph 20.7 mph N/A   Clear
11:35 AM 46.4 °F 41.5 °F 28.4 °F 50% 30.02 in 10.0 mi West 10.4 mph 21.9 mph N/A   Clear
11:55 AM 48.2 °F - 26.6 °F 43% 30.01 in 10.0 mi West 16.1 mph 24.2 mph N/A   Clear
12:15 PM 50.0 °F - 26.6 °F 40% 29.99 in 10.0 mi WNW 18.4 mph 32.2 mph N/A   Clear
12:35 PM 50.0 °F - 23.0 °F 35% 29.99 in 10.0 mi WNW 18.4 mph 25.3 mph N/A   Clear
12:55 PM 51.8 °F - 21.2 °F 30% 29.98 in 10.0 mi WNW 18.4 mph 27.6 mph N/A   Clear
1:15 PM 51.8 °F - 12.2 °F 21% 29.97 in 10.0 mi WNW 23.0 mph 33.4 mph N/A   Clear
1:35 PM 51.8 °F - 12.2 °F 21% 29.96 in 10.0 mi WNW 21.9 mph 31.1 mph N/A   Clear
1:55 PM 51.8 °F - 10.4 °F 19% 29.96 in 10.0 mi NW 24.2 mph 31.1 mph N/A   Clear
2:15 PM 51.8 °F - 10.4 °F 19% 29.96 in 10.0 mi NW 17.3 mph 28.8 mph N/A   Clear
2:35 PM 51.8 °F - 12.2 °F 21% 29.96 in 10.0 mi NW 18.4 mph 26.5 mph N/A   Clear
2:55 PM 51.8 °F - 12.2 °F 21% 29.97 in 10.0 mi WNW 18.4 mph 28.8 mph N/A   Clear
3:15 PM 51.8 °F - 12.2 °F 21% 29.97 in 10.0 mi WNW 20.7 mph 27.6 mph N/A   Clear
3:35 PM 51.8 °F - 10.4 °F 19% 29.98 in 10.0 mi WNW 19.6 mph 28.8 mph N/A   Clear
3:55 PM 51.8 °F - 14.0 °F 22% 29.98 in 10.0 mi WNW 16.1 mph 25.3 mph N/A   Clear
4:15 PM 51.8 °F - 15.8 °F 24% 29.98 in 10.0 mi NW 18.4 mph 23.0 mph N/A   Clear
4:35 PM 51.8 °F - 15.8 °F 24% 29.98 in 10.0 mi WNW 12.7 mph 21.9 mph N/A   Clear
4:55 PM 51.8 °F - 14.0 °F 22% 29.98 in 10.0 mi WNW 15.0 mph 23.0 mph N/A   Clear
5:15 PM 51.8 °F - 12.2 °F 21% 29.98 in 10.0 mi WNW 15.0 mph 25.3 mph N/A   Clear
5:55 PM 50.0 °F - 6.8 °F 17% 30.00 in 10.0 mi WNW 8.1 mph - N/A   Clear
6:15 PM 50.0 °F - 5.0 °F 16% 30.00 in 10.0 mi WNW 12.7 mph - N/A   Clear
6:35 PM 48.2 °F - 8.6 °F 20% 30.01 in 10.0 mi NW 9.2 mph 16.1 mph N/A   Clear
6:55 PM 46.4 °F 41.9 °F 10.4 °F 23% 30.02 in 10.0 mi WNW 9.2 mph - N/A   Clear
7:15 PM 46.4 °F 40.7 °F 10.4 °F 23% 30.02 in 10.0 mi WNW 12.7 mph 16.1 mph N/A   Clear
7:35 PM 46.4 °F 41.1 °F 12.2 °F 25% 30.02 in 10.0 mi WNW 11.5 mph - N/A   Clear
7:55 PM 44.6 °F 40.2 °F 12.2 °F 27% 30.03 in 10.0 mi WNW 8.1 mph - N/A   Clear
8:15 PM 44.6 °F 39.7 °F 14.0 °F 29% 30.04 in 10.0 mi NW 9.2 mph - N/A   Clear
8:35 PM 44.6 °F 39.2 °F 14.0 °F 29% 30.04 in 10.0 mi WNW 10.4 mph - N/A   Clear
8:55 PM 44.6 °F 41.4 °F 14.0 °F 29% 30.05 in 10.0 mi WNW 5.8 mph - N/A   Clear
9:15 PM 42.8 °F 39.3 °F 14.0 °F 31% 30.04 in 10.0 mi NW 5.8 mph - N/A   Clear
9:35 PM 42.8 °F 37.5 °F 14.0 °F 31% 30.05 in 10.0 mi NW 9.2 mph - N/A   Clear
9:55 PM 42.8 °F 38.0 °F 15.8 °F 34% 30.06 in 10.0 mi NW 8.1 mph - N/A   Clear
10:15 PM 42.8 °F 38.6 °F 17.6 °F 36% 30.06 in 10.0 mi NW 6.9 mph - N/A   Clear
10:35 PM 39.2 °F 34.2 °F 19.4 °F 45% 30.06 in 10.0 mi NW 6.9 mph - N/A   Clear
10:55 PM 37.4 °F 32.8 °F 19.4 °F 48% 30.06 in 10.0 mi NW 5.8 mph - N/A   Clear
11:15 PM 39.2 °F 33.6 °F 19.4 °F 45% 30.06 in 10.0 mi NW 8.1 mph - N/A   Clear
11:35 PM 37.4 °F 33.8 °F 19.4 °F 48% 30.06 in 10.0 mi NW 4.6 mph - N/A   Clear
11:55 PM 37.4 °F 34.9 °F 19.4 °F 48% 30.07 in 10.0 mi NW 3.5 mph - N/A   Clear